Weather History for PHOG - May, 2012

Change the Weather History Date:

Tuesday, May 1, 2012

  Actual Average Record
Temperature  
Mean Temperature 73 °F 75 °F  
Max Temperature 83 °F 83 °F 89 °F (2013)
Min Temperature 63 °F 66 °F 60 °F (1992)
Degree Days  
Heating Degree Days 0 0  
Month to date heating degree days 0 0  
Since 1 July heating degree days 0 0  
Cooling Degree Days 8 10  
Month to date cooling degree days 8 10  
Year to date cooling degree days 1006 936  
Growing Degree Days 22 (Base 50)    
Moisture  
Dew Point 62 °F    
Average Humidity 65    
Maximum Humidity 78    
Minimum Humidity 51    
Precipitation  
Precipitation 0.01 in 0.03 in 0.39 in (1981)
Month to date precipitation 0.01 0.03  
Year to date precipitation 3.04 8.79  
Snow  
Snow 0.00 in - - ()
Month to date snowfall 0.0  
Since 1 July snowfall 0.0  
Snow Depth 0.00 in    
Sea Level Pressure  
Sea Level Pressure 30.09 in    
Wind  
Wind Speed 15 mph (ENE)    
Max Wind Speed 30 mph    
Max Gust Speed 40 mph    
Visibility 10 miles    
Events      
T = Trace of Precipitation, MM = Missing Value Source: NWS Daily Summary

Daily Weather History Graph

Daily Weather History Graph

Search for Another Location

Airport or City:

Trip Planner

Search our weather history database for the weather conditions in past years. The results will help you decide how hot, cold, wet, or windy it might be!

Date:

Astronomy

May. 01, 2012 Rise Set
Actual Time 5:54 AM HST 6:50 PM HST
Civil Twilight 5:31 AM HST 7:13 PM HST
Nautical Twilight 5:04 AM HST 7:41 PM HST
Astronomical Twilight 4:36 AM HST 8:09 PM HST
Moon 2:39 PM HST (5/1) 2:21 AM HST (5/1)
Length of Visible Light 13h 42m
Length of Day
12h 55m
Waxing Gibbous, 76% of the Moon is Illuminated
May 1
Waxing Gibbous
May 5
Full
May 12
Last Quarter
May 20
New
May 28
First Quarter

Hourly Weather History & Observations

Time (HST) Temp. Heat Index Dew Point Humidity Pressure Visibility Wind Dir Wind Speed Gust Speed Precip Events Conditions
12:54 AM 71.1 °F - 61.0 °F 70% 30.11 in 10.0 mi NE 15.0 mph - N/A   Clear
1:54 AM 70.0 °F - 61.0 °F 73% 30.10 in 10.0 mi ENE 9.2 mph - N/A   Clear
2:54 AM 68.0 °F - 57.9 °F 70% 30.09 in 10.0 mi East 4.6 mph - N/A   Clear
3:54 AM 68.0 °F - 60.8 °F 78% 30.07 in 10.0 mi ENE 3.5 mph - N/A   Partly Cloudy
4:08 AM 69.8 °F - 62.6 °F 78% 30.07 in 8.0 mi Variable 5.8 mph - N/A   Scattered Clouds
4:54 AM 70.0 °F - 62.1 °F 76% 30.09 in 10.0 mi NE 8.1 mph - N/A   Scattered Clouds
5:54 AM 64.0 °F - 55.9 °F 75% 30.10 in 10.0 mi SE 8.1 mph - 0.01 in   Partly Cloudy
6:54 AM 66.9 °F - 59.0 °F 76% 30.12 in 10.0 mi Variable 4.6 mph - N/A   Partly Cloudy
7:54 AM 73.9 °F - 63.0 °F 68% 30.14 in 10.0 mi ENE 12.7 mph - N/A   Scattered Clouds
8:54 AM 77.0 °F - 64.0 °F 64% 30.14 in 10.0 mi NE 23.0 mph - N/A   Partly Cloudy
9:54 AM 77.0 °F - 64.0 °F 64% 30.14 in 10.0 mi ENE 18.4 mph 28.8 mph N/A   Scattered Clouds
10:54 AM 79.0 °F - 64.0 °F 60% 30.12 in 10.0 mi ENE 23.0 mph 34.5 mph N/A   Partly Cloudy
11:54 AM 80.1 °F 81.2 °F 62.1 °F 54% 30.11 in 10.0 mi East 19.6 mph 38.0 mph N/A   Scattered Clouds
12:54 PM 80.1 °F 81.2 °F 62.1 °F 54% 30.09 in 10.0 mi ENE 27.6 mph 40.3 mph N/A   Scattered Clouds
1:54 PM 82.0 °F 83.0 °F 62.1 °F 51% 30.06 in 10.0 mi ENE 20.7 mph 35.7 mph N/A   Scattered Clouds
2:54 PM 81.0 °F 81.9 °F 62.1 °F 52% 30.05 in 10.0 mi ENE 26.5 mph 35.7 mph N/A   Scattered Clouds
3:54 PM 81.0 °F 81.6 °F 60.1 °F 49% 30.02 in 10.0 mi ENE 26.5 mph 36.8 mph N/A   Partly Cloudy
4:54 PM 78.1 °F - 62.1 °F 58% 30.01 in 10.0 mi ENE 21.9 mph 38.0 mph N/A   Partly Cloudy
5:54 PM 75.9 °F - 62.1 °F 62% 30.03 in 10.0 mi ENE 23.0 mph 35.7 mph N/A   Partly Cloudy
6:54 PM 73.0 °F - 63.0 °F 71% 30.06 in 10.0 mi ENE 20.7 mph 29.9 mph N/A   Clear
7:54 PM 72.0 °F - 63.0 °F 73% 30.07 in 10.0 mi NE 15.0 mph 25.3 mph N/A   Clear
8:54 PM 72.0 °F - 63.0 °F 73% 30.09 in 10.0 mi NE 20.7 mph 25.3 mph N/A   Clear
9:54 PM 71.1 °F - 63.0 °F 75% 30.10 in 10.0 mi ENE 10.4 mph 21.9 mph N/A   Clear
10:54 PM 70.0 °F - 63.0 °F 78% 30.11 in 10.0 mi ENE 3.5 mph - N/A   Clear
11:54 PM 70.0 °F - 62.1 °F 76% 30.11 in 10.0 mi NE 3.5 mph - N/A   Scattered Clouds